Tracking 30074 objects as of 13-Jan-2025
HD Live streaming from Space Station
objects crossing your sky now

IRIDIUM 38

Track IRIDIUM 38 now!
10-day predictions
IRIDIUM 38 is classified as:


NORAD ID: 25043
Int'l Code: 1997-069E
Perigee: 772.2 km
Apogee: 773.2 km
Inclination: 86.4 °
Period: 100.1 minutes
Semi major axis: 7143 km
RCS: 5.0293 m2 (large)
Launch date: November 9, 1997
Source: United States (US)
Launch site: AIR FORCE WESTERN TEST RANGE (AFWTR)
Your satellite tracking list
Your tracking list is empty




NASA's NSSDC Master Catalog

Two Line Element Set (TLE):
1 25043U 97069E   25013.27259465  .00000785  00000-0  25414-3 0  9995
2 25043  86.3966 298.3575 0000678 138.1949 221.9301 14.37855871423690
Source of the keplerian elements: AFSPC